LEMUR-2-SPIROVISION

Last updated on Wed Feb 14 2018 16:20:43 GMT+0000 (Coordinated Universal Time)

1 42755U 17019E 18045.35402743 .00003095 00000-0 12093-3 0 9992 2 42755 51.6420 319.4504 0010795 128.4869 231.7081 15.28946731 38198
UTC large
Height (km)
Speed (km/s)
/
Latitude / Longitude
Inclination (degrees)
Orbital Period (minutes)
Azimuth
Elevation
Range (km)
Doppler Factor

Next 0 passes for location: London (51.5072 / 0.1276)

Sorry there are no passes over London.